"Sample Date","Sample Time","Sensor Name","Sample Value","Units","Flow Rate","Sample Interval","Sample Volume","Laser Status","Number Channels","Micron Size 0","Counts/Channel 0","Micron Size 1","Counts/Channel 1","Micron Size 2","Counts/Channel 2","Micron Size 3","Counts/Channel 3","Micron Size 4","Counts/Channel 4","Micron Size 5","Counts/Channel 5","Micron Size 6","Counts/Channel 6","Micron Size 7","Counts/Channel 7","Micron Size 8","Counts/Channel 8","Micron Size 9","Counts/Channel 9","Micron Size 10","Counts/Channel 10","Micron Size 11","Counts/Channel 11","Micron Size 12","Counts/Channel 12","Micron Size 13","Counts/Channel 13","Micron Size 14","Counts/Channel 14","Micron Size 15","Counts/Channel 15","Micron Size 16","Counts/Channel 16","Micron Size 17","Counts/Channel 17","Micron Size 18","Counts/Channel 18","Micron Size 19","Counts/Channel 19","Micron Size 20","Counts/Channel 20","Micron Size 21","Counts/Channel 21","Micron Size 22","Counts/Channel 22","Micron Size 23","Counts/Channel 23","Micron Size 24","Counts/Channel 24","Micron Size 25","Counts/Channel 25","Micron Size 26","Counts/Channel 26","Micron Size 27","Counts/Channel 27","Micron Size 28","Counts/Channel 28","Micron Size 29","Counts/Channel 29","Micron Size 30","Counts/Channel 30","Micron Size 31","Counts/Channel 31"
"07/02/06","07:00:03","AMMA06",62100.000,"cc",28320.023,6.00,2832.002,1,6,0.100,29637.000,0.200,24580.000,0.300,5380.000,0.500,1470.000,1.000,1032.000,5.000,1.000
"07/02/06","07:00:09","AMMA06",62144.000,"cc",28315.924,6.00,2831.593,1,6,0.100,29686.000,0.200,24648.000,0.300,5308.000,0.500,1451.000,1.000,1049.000,5.000,2.000
"07/02/06","07:00:15","AMMA06",62396.000,"cc",28327.631,6.00,2832.763,1,6,0.100,29806.000,0.200,24680.000,0.300,5418.000,0.500,1505.000,1.000,986.000,5.000,1.000
"07/02/06","07:00:21","AMMA06",62482.000,"cc",28327.936,6.00,2832.794,1,6,0.100,29888.000,0.200,24749.000,0.300,5354.000,0.500,1470.000,1.000,1019.000,5.000,2.000
"07/02/06","07:00:27","AMMA06",62405.000,"cc",28330.565,6.00,2833.057,1,6,0.100,29629.000,0.200,24919.000,0.300,5385.000,0.500,1459.000,1.000,1012.000,5.000,1.000
"07/02/06","07:00:33","AMMA06",62454.000,"cc",28256.035,6.00,2825.604,1,6,0.100,29748.000,0.200,24765.000,0.300,5407.000,0.500,1551.000,1.000,983.000,5.000,0
"07/02/06","07:00:39","AMMA06",62867.000,"cc",28337.262,6.00,2833.726,1,6,0.100,29743.000,0.200,25152.000,0.300,5431.000,0.500,1501.000,1.000,1039.000,5.000,1.000
"07/02/06","07:00:45","AMMA06",62836.000,"cc",28322.236,6.00,2832.224,1,6,0.100,30044.000,0.200,24959.000,0.300,5319.000,0.500,1518.000,1.000,995.000,5.000,1.000
"07/02/06","07:00:51","AMMA06",62262.000,"cc",28312.117,6.00,2831.212,1,6,0.100,29396.000,0.200,25001.000,0.300,5456.000,0.500,1411.000,1.000,998.000,5.000,0
"07/02/06","07:00:57","AMMA06",62711.000,"cc",28283.629,6.00,2828.363,1,6,0.100,29596.000,0.200,25109.000,0.300,5470.000,0.500,1524.000,1.000,1012.000,5.000,0
"07/02/06","07:01:03","AMMA06",62270.000,"cc",28285.297,6.00,2828.530,1,6,0.100,29486.000,0.200,24824.000,0.300,5434.000,0.500,1537.000,1.000,988.000,5.000,1.000
"07/02/06","07:01:09","AMMA06",62856.000,"cc",28336.953,6.00,2833.696,1,6,0.100,29577.000,0.200,25157.000,0.300,5604.000,0.500,1524.000,1.000,994.000,5.000,0
"07/02/06","07:01:15","AMMA06",62650.000,"cc",28334.908,6.00,2833.491,1,6,0.100,29725.000,0.200,25074.000,0.300,5422.000,0.500,1449.000,1.000,980.000,5.000,0
"07/02/06","07:01:21","AMMA06",62927.000,"cc",28305.652,6.00,2830.565,1,6,0.100,29685.000,0.200,25222.000,0.300,5457.000,0.500,1522.000,1.000,1040.000,5.000,1.000
"07/02/06","07:01:27","AMMA06",62950.000,"cc",28316.475,6.00,2831.648,1,6,0.100,29901.000,0.200,25199.000,0.300,5454.000,0.500,1403.000,1.000,991.000,5.000,2.000
"07/02/06","07:01:33","AMMA06",62465.000,"cc",28330.182,6.00,2833.018,1,6,0.100,29653.000,0.200,24836.000,0.300,5460.000,0.500,1480.000,1.000,1035.000,5.000,1.000
"07/02/06","07:01:39","AMMA06",62563.000,"cc",28342.348,6.00,2834.235,1,6,0.100,29624.000,0.200,24963.000,0.300,5528.000,0.500,1449.000,1.000,997.000,5.000,2.000
"07/02/06","07:01:45","AMMA06",62577.000,"cc",28322.527,6.00,2832.253,1,6,0.100,29433.000,0.200,25075.000,0.300,5598.000,0.500,1503.000,1.000,968.000,5.000,0
"07/02/06","07:01:51","AMMA06",62196.000,"cc",28296.332,6.00,2829.633,1,6,0.100,29227.000,0.200,25051.000,0.300,5460.000,0.500,1480.000,1.000,976.000,5.000,2.000
"07/02/06","07:01:57","AMMA06",62647.000,"cc",28358.725,6.00,2835.873,1,6,0.100,29950.000,0.200,24697.000,0.300,5460.000,0.500,1452.000,1.000,1088.000,5.000,0
"07/02/06","07:02:03","AMMA06",62109.000,"cc",28343.065,6.00,2834.307,1,6,0.100,29129.000,0.200,25018.000,0.300,5429.000,0.500,1492.000,1.000,1037.000,5.000,4.000
"07/02/06","07:02:09","AMMA06",62287.000,"cc",28272.635,6.00,2827.264,1,6,0.100,29204.000,0.200,25186.000,0.300,5433.000,0.500,1461.000,1.000,1003.000,5.000,0
"07/02/06","07:02:15","AMMA06",62695.000,"cc",28297.695,6.00,2829.770,1,6,0.100,29487.000,0.200,25222.000,0.300,5452.000,0.500,1486.000,1.000,1047.000,5.000,1.000
"07/02/06","07:02:21","AMMA06",62029.000,"cc",28298.932,6.00,2829.893,1,6,0.100,28746.000,0.200,25295.000,0.300,5504.000,0.500,1519.000,1.000,964.000,5.000,1.000
"07/02/06","07:02:27","AMMA06",62619.000,"cc",28300.010,6.00,2830.001,1,6,0.100,29471.000,0.200,25044.000,0.300,5519.000,0.500,1553.000,1.000,1032.000,5.000,0
"07/02/06","07:02:33","AMMA06",62718.000,"cc",28317.617,6.00,2831.762,1,6,0.100,29476.000,0.200,25365.000,0.300,5399.000,0.500,1492.000,1.000,986.000,5.000,0
"07/02/06","07:02:39","AMMA06",63078.000,"cc",28340.504,6.00,2834.051,1,6,0.100,29752.000,0.200,25274.000,0.300,5518.000,0.500,1493.000,1.000,1040.000,5.000,1.000
"07/02/06","07:02:45","AMMA06",63519.000,"cc",28351.383,6.00,2835.138,1,6,0.100,29697.000,0.200,25625.000,0.300,5547.000,0.500,1590.000,1.000,1059.000,5.000,1.000
"07/02/06","07:02:51","AMMA06",63897.000,"cc",28263.348,6.00,2826.335,1,6,0.100,29929.000,0.200,25822.000,0.300,5588.000,0.500,1507.000,1.000,1050.000,5.000,1.000
"07/02/06","07:02:57","AMMA06",64177.000,"cc",28369.002,6.00,2836.900,1,6,0.100,29957.000,0.200,25953.000,0.300,5614.000,0.500,1530.000,1.000,1123.000,5.000,0
"07/02/06","07:03:03","AMMA06",64051.000,"cc",28303.139,6.00,2830.314,1,6,0.100,30094.000,0.200,25756.000,0.300,5660.000,0.500,1491.000,1.000,1049.000,5.000,1.000
"07/02/06","07:03:09","AMMA06",63950.000,"cc",28311.315,6.00,2831.132,1,6,0.100,29694.000,0.200,25924.000,0.300,5719.000,0.500,1476.000,1.000,1136.000,5.000,1.000
"07/02/06","07:03:15","AMMA06",64089.000,"cc",28372.920,6.00,2837.292,1,6,0.100,29938.000,0.200,25910.000,0.300,5636.000,0.500,1534.000,1.000,1070.000,5.000,1.000
"07/02/06","07:03:21","AMMA06",64604.000,"cc",28290.893,6.00,2829.089,1,6,0.100,30052.000,0.200,26264.000,0.300,5727.000,0.500,1506.000,1.000,1055.000,5.000,0
"07/02/06","07:03:27","AMMA06",64134.000,"cc",28294.453,6.00,2829.446,1,6,0.100,29995.000,0.200,25819.000,0.300,5774.000,0.500,1493.000,1.000,1052.000,5.000,1.000
"07/02/06","07:03:33","AMMA06",64506.000,"cc",28297.104,6.00,2829.710,1,6,0.100,29990.000,0.200,26063.000,0.300,5928.000,0.500,1500.000,1.000,1024.000,5.000,1.000
"07/02/06","07:03:39","AMMA06",64144.000,"cc",28335.678,6.00,2833.568,1,6,0.100,29774.000,0.200,25972.000,0.300,5742.000,0.500,1489.000,1.000,1166.000,5.000,1.000
"07/02/06","07:03:45","AMMA06",64287.000,"cc",28321.596,6.00,2832.160,1,6,0.100,30009.000,0.200,26003.000,0.300,5685.000,0.500,1528.000,1.000,1061.000,5.000,1.000
"07/02/06","07:03:51","AMMA06",64432.000,"cc",28333.397,6.00,2833.340,1,6,0.100,29839.000,0.200,26253.000,0.300,5715.000,0.500,1529.000,1.000,1095.000,5.000,1.000
"07/02/06","07:03:57","AMMA06",64243.000,"cc",28287.527,6.00,2828.753,1,6,0.100,30086.000,0.200,25935.000,0.300,5727.000,0.500,1491.000,1.000,1004.000,5.000,0
"07/02/06","07:04:03","AMMA06",64242.000,"cc",28315.707,6.00,2831.571,1,6,0.100,29956.000,0.200,26039.000,0.300,5700.000,0.500,1513.000,1.000,1030.000,5.000,4.000
"07/02/06","07:04:09","AMMA06",64222.000,"cc",28309.809,6.00,2830.981,1,6,0.100,30036.000,0.200,25923.000,0.300,5562.000,0.500,1561.000,1.000,1135.000,5.000,5.000
"07/02/06","07:04:15","AMMA06",64453.000,"cc",28299.609,6.00,2829.961,1,6,0.100,29953.000,0.200,25974.000,0.300,5862.000,0.500,1592.000,1.000,1071.000,5.000,1.000
"07/02/06","07:04:21","AMMA06",64459.000,"cc",28322.592,6.00,2832.259,1,6,0.100,30010.000,0.200,26288.000,0.300,5563.000,0.500,1513.000,1.000,1085.000,5.000,0
"07/02/06","07:04:27","AMMA06",64568.000,"cc",28305.201,6.00,2830.520,1,6,0.100,30241.000,0.200,26086.000,0.300,5660.000,0.500,1530.000,1.000,1047.000,5.000,4.000
"07/02/06","07:04:33","AMMA06",64184.000,"cc",28346.902,6.00,2834.690,1,6,0.100,30167.000,0.200,25781.000,0.300,5689.000,0.500,1532.000,1.000,1013.000,5.000,2.000
"07/02/06","07:04:39","AMMA06",64442.000,"cc",28306.170,6.00,2830.617,1,6,0.100,30276.000,0.200,26047.000,0.300,5576.000,0.500,1484.000,1.000,1058.000,5.000,1.000
"07/02/06","07:04:45","AMMA06",64593.000,"cc",28347.768,6.00,2834.777,1,6,0.100,30265.000,0.200,26026.000,0.300,5686.000,0.500,1586.000,1.000,1030.000,5.000,0
"07/02/06","07:04:51","AMMA06",64013.000,"cc",28283.555,6.00,2828.356,1,6,0.100,30027.000,0.200,25622.000,0.300,5755.000,0.500,1543.000,1.000,1065.000,5.000,1.000
"07/02/06","07:04:57","AMMA06",64204.000,"cc",28338.096,6.00,2833.810,1,6,0.100,30270.000,0.200,25834.000,0.300,5549.000,0.500,1547.000,1.000,1004.000,5.000,0
"07/02/06","07:05:03","AMMA06",63715.000,"cc",28288.522,6.00,2828.852,1,6,0.100,29914.000,0.200,25681.000,0.300,5557.000,0.500,1497.000,1.000,1065.000,5.000,1.000
"07/02/06","07:05:09","AMMA06",64038.000,"cc",28280.582,6.00,2828.058,1,6,0.100,29871.000,0.200,26039.000,0.300,5547.000,0.500,1533.000,1.000,1048.000,5.000,0
"07/02/06","07:05:15","AMMA06",63993.000,"cc",28311.383,6.00,2831.138,1,6,0.100,30112.000,0.200,25887.000,0.300,5507.000,0.500,1458.000,1.000,1029.000,5.000,0
"07/02/06","07:05:21","AMMA06",64198.000,"cc",28334.664,6.00,2833.467,1,6,0.100,30150.000,0.200,25728.000,0.300,5749.000,0.500,1554.000,1.000,1016.000,5.000,1.000
"07/02/06","07:05:27","AMMA06",64714.000,"cc",28309.301,6.00,2830.930,1,6,0.100,30595.000,0.200,25969.000,0.300,5574.000,0.500,1557.000,1.000,1019.000,5.000,0
"07/02/06","07:05:33","AMMA06",63940.000,"cc",28330.328,6.00,2833.033,1,6,0.100,29956.000,0.200,25932.000,0.300,5505.000,0.500,1488.000,1.000,1057.000,5.000,2.000
"07/02/06","07:05:39","AMMA06",63933.000,"cc",28307.035,6.00,2830.704,1,6,0.100,29966.000,0.200,25822.000,0.300,5564.000,0.500,1529.000,1.000,1051.000,5.000,1.000
"07/02/06","07:05:45","AMMA06",64728.000,"cc",28319.740,6.00,2831.974,1,6,0.100,30610.000,0.200,25802.000,0.300,5647.000,0.500,1581.000,1.000,1084.000,5.000,4.000
"07/02/06","07:05:51","AMMA06",64397.000,"cc",28328.959,6.00,2832.896,1,6,0.100,30114.000,0.200,25929.000,0.300,5681.000,0.500,1597.000,1.000,1074.000,5.000,2.000
"07/02/06","07:05:57","AMMA06",64281.000,"cc",28316.014,6.00,2831.602,1,6,0.100,30369.000,0.200,25741.000,0.300,5573.000,0.500,1508.000,1.000,1089.000,5.000,1.000
"07/02/06","07:06:03","AMMA06",64040.000,"cc",28298.158,6.00,2829.816,1,6,0.100,30197.000,0.200,25775.000,0.300,5491.000,0.500,1529.000,1.000,1048.000,5.000,0
"07/02/06","07:06:09","AMMA06",64370.000,"cc",28354.893,6.00,2835.490,1,6,0.100,30404.000,0.200,25755.000,0.300,5552.000,0.500,1583.000,1.000,1074.000,5.000,2.000
"07/02/06","07:06:15","AMMA06",64051.000,"cc",28312.234,6.00,2831.224,1,6,0.100,30236.000,0.200,25778.000,0.300,5389.000,0.500,1545.000,1.000,1100.000,5.000,3.000
"07/02/06","07:06:21","AMMA06",63565.000,"cc",28318.512,6.00,2831.851,1,6,0.100,30175.000,0.200,25458.000,0.300,5380.000,0.500,1497.000,1.000,1054.000,5.000,1.000
"07/02/06","07:06:27","AMMA06",63996.000,"cc",28301.260,6.00,2830.126,1,6,0.100,30163.000,0.200,25874.000,0.300,5408.000,0.500,1543.000,1.000,1008.000,5.000,0
"07/02/06","07:06:33","AMMA06",64442.000,"cc",28332.359,6.00,2833.236,1,6,0.100,30411.000,0.200,25876.000,0.300,5554.000,0.500,1574.000,1.000,1024.000,5.000,3.000
"07/02/06","07:06:39","AMMA06",64031.000,"cc",28312.719,6.00,2831.272,1,6,0.100,30461.000,0.200,25446.000,0.300,5480.000,0.500,1579.000,1.000,1065.000,5.000,0
"07/02/06","07:06:45","AMMA06",64581.000,"cc",28305.391,6.00,2830.539,1,6,0.100,30556.000,0.200,25974.000,0.300,5510.000,0.500,1541.000,1.000,998.000,5.000,2.000
"07/02/06","07:06:51","AMMA06",64086.000,"cc",28294.791,6.00,2829.479,1,6,0.100,30172.000,0.200,25738.000,0.300,5509.000,0.500,1525.000,1.000,1141.000,5.000,1.000
"07/02/06","07:06:57","AMMA06",64763.000,"cc",28328.535,6.00,2832.854,1,6,0.100,30806.000,0.200,25907.000,0.300,5474.000,0.500,1511.000,1.000,1065.000,5.000,0
"07/02/06","07:07:03","AMMA06",64249.000,"cc",28321.557,6.00,2832.156,1,6,0.100,30335.000,0.200,25924.000,0.300,5450.000,0.500,1481.000,1.000,1059.000,5.000,0
"07/02/06","07:07:09","AMMA06",64045.000,"cc",28288.369,6.00,2828.837,1,6,0.100,30228.000,0.200,25775.000,0.300,5545.000,0.500,1514.000,1.000,983.000,5.000,0
"07/02/06","07:07:15","AMMA06",64140.000,"cc",28305.223,6.00,2830.523,1,6,0.100,30273.000,0.200,25828.000,0.300,5430.000,0.500,1541.000,1.000,1066.000,5.000,2.000
"07/02/06","07:07:21","AMMA06",64305.000,"cc",28302.879,6.00,2830.288,1,6,0.100,30409.000,0.200,25834.000,0.300,5486.000,0.500,1555.000,1.000,1021.000,5.000,0
"07/02/06","07:07:27","AMMA06",64100.000,"cc",28328.656,6.00,2832.866,1,6,0.100,30554.000,0.200,25529.000,0.300,5436.000,0.500,1586.000,1.000,992.000,5.000,3.000
"07/02/06","07:07:33","AMMA06",64593.000,"cc",28345.717,6.00,2834.572,1,6,0.100,30633.000,0.200,25637.000,0.300,5623.000,0.500,1622.000,1.000,1075.000,5.000,3.000
"07/02/06","07:07:39","AMMA06",64648.000,"cc",28343.568,6.00,2834.357,1,6,0.100,30612.000,0.200,25985.000,0.300,5451.000,0.500,1528.000,1.000,1069.000,5.000,3.000
"07/02/06","07:07:45","AMMA06",64253.000,"cc",28289.150,6.00,2828.915,1,6,0.100,30547.000,0.200,25839.000,0.300,5404.000,0.500,1455.000,1.000,1007.000,5.000,1.000
"07/02/06","07:07:51","AMMA06",64310.000,"cc",28317.201,6.00,2831.720,1,6,0.100,30198.000,0.200,26057.000,0.300,5526.000,0.500,1494.000,1.000,1033.000,5.000,2.000
"07/02/06","07:07:57","AMMA06",64885.000,"cc",28290.117,6.00,2829.012,1,6,0.100,30665.000,0.200,26013.000,0.300,5576.000,0.500,1566.000,1.000,1065.000,5.000,0
"07/02/06","07:08:03","AMMA06",64476.000,"cc",28269.666,6.00,2826.967,1,6,0.100,30644.000,0.200,25668.000,0.300,5561.000,0.500,1533.000,1.000,1070.000,5.000,0
"07/02/06","07:08:09","AMMA06",64636.000,"cc",28347.416,6.00,2834.742,1,6,0.100,30669.000,0.200,25868.000,0.300,5510.000,0.500,1554.000,1.000,1035.000,5.000,0
"07/02/06","07:08:15","AMMA06",64568.000,"cc",28320.107,6.00,2832.011,1,6,0.100,30405.000,0.200,25986.000,0.300,5599.000,0.500,1491.000,1.000,1087.000,5.000,0
"07/02/06","07:08:21","AMMA06",64952.000,"cc",28392.158,6.00,2839.216,1,6,0.100,30495.000,0.200,26242.000,0.300,5638.000,0.500,1537.000,1.000,1040.000,5.000,0
"07/02/06","07:08:27","AMMA06",64460.000,"cc",28363.965,6.00,2836.397,1,6,0.100,29963.000,0.200,26278.000,0.300,5617.000,0.500,1545.000,1.000,1056.000,5.000,1.000
"07/02/06","07:08:33","AMMA06",65056.000,"cc",28274.625,6.00,2827.463,1,6,0.100,30494.000,0.200,26308.000,0.300,5604.000,0.500,1577.000,1.000,1072.000,5.000,1.000
"07/02/06","07:08:39","AMMA06",64762.000,"cc",28317.920,6.00,2831.792,1,6,0.100,30217.000,0.200,26102.000,0.300,5751.000,0.500,1553.000,1.000,1139.000,5.000,0
"07/02/06","07:08:45","AMMA06",64772.000,"cc",28337.059,6.00,2833.706,1,6,0.100,30098.000,0.200,26171.000,0.300,5750.000,0.500,1606.000,1.000,1146.000,5.000,1.000
"07/02/06","07:08:51","AMMA06",64764.000,"cc",28291.410,6.00,2829.141,1,6,0.100,30132.000,0.200,26214.000,0.300,5713.000,0.500,1573.000,1.000,1132.000,5.000,0
"07/02/06","07:08:57","AMMA06",64323.000,"cc",28319.795,6.00,2831.980,1,6,0.100,29934.000,0.200,26170.000,0.300,5593.000,0.500,1544.000,1.000,1082.000,5.000,0
"07/02/06","07:09:03","AMMA06",64464.000,"cc",28291.381,6.00,2829.138,1,6,0.100,30171.000,0.200,25968.000,0.300,5737.000,0.500,1525.000,1.000,1063.000,5.000,0
"07/02/06","07:09:09","AMMA06",64974.000,"cc",28316.766,6.00,2831.677,1,6,0.100,30018.000,0.200,26656.000,0.300,5696.000,0.500,1508.000,1.000,1093.000,5.000,3.000
"07/02/06","07:09:15","AMMA06",65113.000,"cc",28269.615,6.00,2826.962,1,6,0.100,30188.000,0.200,26401.000,0.300,5936.000,0.500,1495.000,1.000,1091.000,5.000,2.000
"07/02/06","07:09:21","AMMA06",64821.000,"cc",28338.180,6.00,2833.818,1,6,0.100,30104.000,0.200,26216.000,0.300,5830.000,0.500,1593.000,1.000,1074.000,5.000,4.000
"07/02/06","07:09:27","AMMA06",64890.000,"cc",28370.787,6.00,2837.079,1,6,0.100,29869.000,0.200,26587.000,0.300,5790.000,0.500,1549.000,1.000,1094.000,5.000,1.000
"07/02/06","07:09:33","AMMA06",64864.000,"cc",28358.229,6.00,2835.823,1,6,0.100,29917.000,0.200,26630.000,0.300,5719.000,0.500,1501.000,1.000,1096.000,5.000,1.000
"07/02/06","07:09:39","AMMA06",64960.000,"cc",28306.102,6.00,2830.610,1,6,0.100,29938.000,0.200,26371.000,0.300,5942.000,0.500,1589.000,1.000,1118.000,5.000,2.000
"07/02/06","07:09:45","AMMA06",65102.000,"cc",28249.580,6.00,2824.958,1,6,0.100,30154.000,0.200,26386.000,0.300,5880.000,0.500,1567.000,1.000,1113.000,5.000,2.000
"07/02/06","07:09:51","AMMA06",65065.000,"cc",28277.996,6.00,2827.800,1,6,0.100,29917.000,0.200,26538.000,0.300,5909.000,0.500,1598.000,1.000,1102.000,5.000,1.000
"07/02/06","07:09:57","AMMA06",64948.000,"cc",28335.621,6.00,2833.562,1,6,0.100,30067.000,0.200,26537.000,0.300,5722.000,0.500,1524.000,1.000,1095.000,5.000,3.000
"07/02/06","07:10:03","AMMA06",65162.000,"cc",28319.762,6.00,2831.976,1,6,0.100,30139.000,0.200,26644.000,0.300,5732.000,0.500,1580.000,1.000,1067.000,5.000,0
"07/02/06","07:10:09","AMMA06",64750.000,"cc",28342.135,6.00,2834.214,1,6,0.100,29785.000,0.200,26530.000,0.300,5760.000,0.500,1581.000,1.000,1093.000,5.000,1.000
"07/02/06","07:10:15","AMMA06",64888.000,"cc",28265.752,6.00,2826.575,1,6,0.100,30249.000,0.200,26156.000,0.300,5845.000,0.500,1556.000,1.000,1081.000,5.000,1.000
"07/02/06","07:10:21","AMMA06",65120.000,"cc",28326.676,6.00,2832.668,1,6,0.100,30216.000,0.200,26434.000,0.300,5758.000,0.500,1571.000,1.000,1140.000,5.000,1.000
"07/02/06","07:10:27","AMMA06",65181.000,"cc",28335.068,6.00,2833.507,1,6,0.100,30319.000,0.200,26426.000,0.300,5735.000,0.500,1590.000,1.000,1109.000,5.000,2.000
"07/02/06","07:10:33","AMMA06",64923.000,"cc",28269.877,6.00,2826.988,1,6,0.100,30379.000,0.200,26201.000,0.300,5671.000,0.500,1559.000,1.000,1113.000,5.000,0
"07/02/06","07:10:39","AMMA06",65126.000,"cc",28347.828,6.00,2834.783,1,6,0.100,30364.000,0.200,26363.000,0.300,5734.000,0.500,1560.000,1.000,1104.000,5.000,1.000
"07/02/06","07:10:45","AMMA06",64305.000,"cc",28307.471,6.00,2830.747,1,6,0.100,29839.000,0.200,26222.000,0.300,5672.000,0.500,1480.000,1.000,1091.000,5.000,1.000
"07/02/06","07:10:51","AMMA06",64365.000,"cc",28331.502,6.00,2833.150,1,6,0.100,30267.000,0.200,25894.000,0.300,5595.000,0.500,1564.000,1.000,1042.000,5.000,3.000
"07/02/06","07:10:57","AMMA06",64644.000,"cc",28326.109,6.00,2832.611,1,6,0.100,30233.000,0.200,26091.000,0.300,5674.000,0.500,1552.000,1.000,1094.000,5.000,0
"07/02/06","07:11:03","AMMA06",64815.000,"cc",28335.611,6.00,2833.561,1,6,0.100,30259.000,0.200,26283.000,0.300,5641.000,0.500,1560.000,1.000,1071.000,5.000,1.000
"07/02/06","07:11:09","AMMA06",64918.000,"cc",28270.131,6.00,2827.013,1,6,0.100,30391.000,0.200,26289.000,0.300,5592.000,0.500,1558.000,1.000,1088.000,5.000,0
"07/02/06","07:11:15","AMMA06",64365.000,"cc",28338.500,6.00,2833.850,1,6,0.100,29957.000,0.200,26106.000,0.300,5671.000,0.500,1559.000,1.000,1071.000,5.000,1.000
"07/02/06","07:11:21","AMMA06",64718.000,"cc",28309.727,6.00,2830.973,1,6,0.100,30184.000,0.200,26313.000,0.300,5552.000,0.500,1591.000,1.000,1076.000,5.000,2.000
"07/02/06","07:11:27","AMMA06",65234.000,"cc",28330.621,6.00,2833.062,1,6,0.100,30331.000,0.200,26486.000,0.300,5748.000,0.500,1598.000,1.000,1069.000,5.000,2.000
"07/02/06","07:11:33","AMMA06",65044.000,"cc",28327.051,6.00,2832.705,1,6,0.100,30457.000,0.200,26184.000,0.300,5734.000,0.500,1590.000,1.000,1077.000,5.000,2.000
"07/02/06","07:11:39","AMMA06",64619.000,"cc",28313.232,6.00,2831.324,1,6,0.100,30354.000,0.200,25967.000,0.300,5581.000,0.500,1602.000,1.000,1113.000,5.000,2.000
"07/02/06","07:11:45","AMMA06",64890.000,"cc",28311.012,6.00,2831.101,1,6,0.100,30390.000,0.200,26222.000,0.300,5611.000,0.500,1616.000,1.000,1051.000,5.000,0
"07/02/06","07:11:51","AMMA06",64954.000,"cc",28281.514,6.00,2828.152,1,6,0.100,30710.000,0.200,26023.000,0.300,5568.000,0.500,1622.000,1.000,1031.000,5.000,0
"07/02/06","07:11:57","AMMA06",65235.000,"cc",28344.383,6.00,2834.439,1,6,0.100,30904.000,0.200,26094.000,0.300,5659.000,0.500,1505.000,1.000,1071.000,5.000,2.000
"07/02/06","07:12:03","AMMA06",64702.000,"cc",28346.811,6.00,2834.681,1,6,0.100,30386.000,0.200,26041.000,0.300,5587.000,0.500,1605.000,1.000,1082.000,5.000,1.000
"07/02/06","07:12:09","AMMA06",65414.000,"cc",28289.023,6.00,2828.903,1,6,0.100,30744.000,0.200,26313.000,0.300,5620.000,0.500,1647.000,1.000,1088.000,5.000,2.000
"07/02/06","07:12:15","AMMA06",64879.000,"cc",28341.385,6.00,2834.139,1,6,0.100,30632.000,0.200,26055.000,0.300,5499.000,0.500,1622.000,1.000,1071.000,5.000,0
"07/02/06","07:12:21","AMMA06",64643.000,"cc",28296.885,6.00,2829.689,1,6,0.100,30484.000,0.200,26007.000,0.300,5400.000,0.500,1617.000,1.000,1135.000,5.000,0
"07/02/06","07:12:27","AMMA06",64470.000,"cc",28306.977,6.00,2830.698,1,6,0.100,30302.000,0.200,25935.000,0.300,5585.000,0.500,1637.000,1.000,1011.000,5.000,0
"07/02/06","07:12:33","AMMA06",65089.000,"cc",28322.018,6.00,2832.202,1,6,0.100,30797.000,0.200,26146.000,0.300,5492.000,0.500,1559.000,1.000,1092.000,5.000,3.000
"07/02/06","07:12:39","AMMA06",64706.000,"cc",28328.746,6.00,2832.875,1,6,0.100,30481.000,0.200,26164.000,0.300,5509.000,0.500,1552.000,1.000,994.000,5.000,6.000
"07/02/06","07:12:45","AMMA06",64322.000,"cc",28273.438,6.00,2827.344,1,6,0.100,30193.000,0.200,26016.000,0.300,5504.000,0.500,1554.000,1.000,1055.000,5.000,0
"07/02/06","07:12:51","AMMA06",64576.000,"cc",28326.148,6.00,2832.615,1,6,0.100,30220.000,0.200,26248.000,0.300,5479.000,0.500,1543.000,1.000,1086.000,5.000,0
"07/02/06","07:12:57","AMMA06",64831.000,"cc",28333.047,6.00,2833.305,1,6,0.100,30401.000,0.200,26245.000,0.300,5498.000,0.500,1577.000,1.000,1110.000,5.000,0
"07/02/06","07:13:03","AMMA06",64614.000,"cc",28325.131,6.00,2832.513,1,6,0.100,30389.000,0.200,26111.000,0.300,5526.000,0.500,1509.000,1.000,1079.000,5.000,0
"07/02/06","07:13:09","AMMA06",64737.000,"cc",28301.170,6.00,2830.117,1,6,0.100,30607.000,0.200,25876.000,0.300,5566.000,0.500,1633.000,1.000,1054.000,5.000,1.000
"07/02/06","07:13:15","AMMA06",64478.000,"cc",28388.648,6.00,2838.865,1,6,0.100,30206.000,0.200,26016.000,0.300,5576.000,0.500,1618.000,1.000,1061.000,5.000,1.000
"07/02/06","07:13:21","AMMA06",64928.000,"cc",28289.111,6.00,2828.911,1,6,0.100,30360.000,0.200,26284.000,0.300,5685.000,0.500,1529.000,1.000,1070.000,5.000,0
"07/02/06","07:13:27","AMMA06",64380.000,"cc",28250.479,6.00,2825.048,1,6,0.100,30144.000,0.200,26137.000,0.300,5535.000,0.500,1527.000,1.000,1036.000,5.000,1.000
"07/02/06","07:13:33","AMMA06",63810.000,"cc",28336.180,6.00,2833.618,1,6,0.100,29941.000,0.200,25818.000,0.300,5507.000,0.500,1500.000,1.000,1044.000,5.000,0
"07/02/06","07:13:39","AMMA06",63612.000,"cc",28321.986,6.00,2832.199,1,6,0.100,29678.000,0.200,25691.000,0.300,5609.000,0.500,1516.000,1.000,1116.000,5.000,2.000
"07/02/06","07:13:45","AMMA06",64129.000,"cc",28306.758,6.00,2830.676,1,6,0.100,29977.000,0.200,25838.000,0.300,5647.000,0.500,1548.000,1.000,1118.000,5.000,1.000
"07/02/06","07:13:51","AMMA06",64380.000,"cc",28312.566,6.00,2831.257,1,6,0.100,30098.000,0.200,26104.000,0.300,5597.000,0.500,1574.000,1.000,1007.000,5.000,0